This demonstration page uses our WeatherBlox Daily Observations layout. Learn more.

Hourly Observations for October 25, 2018

Temp ( °F °C ) Dew Point ( °F °C ) Humidity (%) Winds ( mph kmh ) Pressure ( in mb ) Visibility ( mi km ) Precip ( " mm )
12:15 am 00:15 Cloudy with Light Drizzle 46 7.5 46 7.5 100 100 S 5 7 30.12 1020 10 16.0934 0 0
12:35 am 00:35 Cloudy with Light Rain 45 7.3 45 7.3 100 100 S 6 9 30.12 1020 10 16.0934 0.01 0.254
12:55 am 00:55 Cloudy with Light Rain 45 7.3 45 7.3 100 100 S 6 9 30.09 1019 10 16.0934 0.01 0.254
1:15 am 01:15 Cloudy with Light Rain 45 7.2 45 7.2 100 100 S 6 9 30.09 1019 10 16.0934 0.01 0.254
1:35 am 01:35 Cloudy with Light Rain 45 7.3 45 7.3 100 100 S 6 9 30.09 1019 10 16.0934 0.01 0.254
1:55 am 01:55 Cloudy with Light Rain 45 7.2 45 7.2 100 100 S 7 11 30.09 1019 10 16.0934 0.04 1.016
2:15 am 02:15 Cloudy with Light Rain 45 7.2 45 7.2 100 100 S 9 15 30.09 1019 10 16.0934 0.01 0.254
2:35 am 02:35 Cloudy with Rain 45 7.2 45 7.2 100 100 S 9 15 30.09 1019 7 11.26538 0.02 0.508
2:55 am 02:55 Cloudy with Light Drizzle 45 7 45 7 100 100 S 9 15 30.06 1018 10 16.0934 0.03 0.762
3:15 am 03:15 Cloudy with Light Drizzle 44 6.8 44 6.8 100 100 S 9 15 30.06 1018 10 16.0934 0 0
3:35 am 03:35 Cloudy with Light Drizzle 44 6.6 44 6.6 100 100 S 9 15 30.06 1018 10 16.0934 0 0
3:55 am 03:55 Cloudy 44 6.6 44 6.6 100 100 SSE 6 9 30.06 1018 10 16.0934 0 0
4:15 am 04:15 Cloudy with Mist and Fog 44 6.5 44 6.5 100 100 S 7 11 30.06 1018 5 8.0467 0 0
4:35 am 04:35 Cloudy 44 6.5 44 6.5 100 100 S 7 11 30.03 1017 7 11.26538 0 0
4:55 am 04:55 Cloudy 44 6.6 44 6.6 100 100 S 7 11 30.03 1017 7 11.26538 0 0
5:15 am 05:15 Cloudy with Drizzle 44 6.5 44 6.5 100 100 S 7 11 30.03 1017 10 16.0934 0 0
5:35 am 05:35 Cloudy with Light Rain 44 6.5 44 6.5 100 100 S 7 11 30.03 1017 7 11.26538 0.01 0.254
5:55 am 05:55 Cloudy with Light Rain 44 6.5 44 6.5 100 100 S 6 9 30.03 1017 10 16.0934 0.02 0.508
6:15 am 06:15 Cloudy with Light Rain 44 6.5 44 6.5 100 100 S 7 11 30.03 1017 10 16.0934 0.02 0.508
6:35 am 06:35 Cloudy with Light Rain 44 6.5 44 6.5 100 100 S 6 9 30.03 1017 10 16.0934 0.04 1.016
6:55 am 06:55 Cloudy with Rain 44 6.5 44 6.5 100 100 S 6 9 30.03 1017 7 11.26538 0.07 1.778
7:15 am 07:15 Cloudy with Light Rain 44 6.5 44 6.5 100 100 S 7 11 30.03 1017 10 16.0934 0.01 0.254
7:35 am 07:35 Cloudy with Light Rain 44 6.5 44 6.5 100 100 S 6 9 30.03 1017 10 16.0934 0.02 0.508
7:55 am 07:55 Cloudy with Light Rain 44 6.5 44 6.5 100 100 S 6 9 30.03 1017 10 16.0934 0.03 0.762
8:15 am 08:15 Cloudy with Light Rain 44 6.5 44 6.5 100 100 SSW 5 7 30.03 1017 10 16.0934 0.01 0.254
8:35 am 08:35 Cloudy with Light Rain 44 6.5 44 6.5 100 100 SSW 3 6 30.03 1017 10 16.0934 0.01 0.254
8:55 am 08:55 Cloudy with Light Rain 44 6.5 44 6.5 100 100 Calm 30.03 1017 10 16.0934 0.02 0.508
9:15 am 09:15 Cloudy with Light Rain 44 6.6 44 6.6 100 100 SSW 3 6 30.03 1017 10 16.0934 0 0
9:35 am 09:35 Cloudy with Light Rain 44 6.6 44 6.6 100 100 Calm 30.03 1017 10 16.0934 0 0
9:55 am 09:55 Cloudy with Light Rain 44 6.8 44 6.8 100 100 S 3 6 30.03 1017 10 16.0934 0 0
10:15 am 10:15 Cloudy with Light Rain 45 7 45 7 100 100 Calm 30.03 1017 10 16.0934 0.01 0.254
10:35 am 10:35 Cloudy with Light Rain 45 7.2 45 7.2 100 100 SSE 3 6 30.03 1017 10 16.0934 0.01 0.254
10:55 am 10:55 Cloudy with Light Rain 45 7.2 45 7.2 100 100 Calm 30.03 1017 10 16.0934 0.03 0.762
11:15 am 11:15 Cloudy with Light Rain 45 7.3 45 7.2 99 99 Calm 30.03 1017 10 16.0934 0.01 0.254
11:35 am 11:35 Cloudy with Light Rain 46 7.5 45 7.4 99 99 Calm 30.03 1017 10 16.0934 0.03 0.762
11:55 am 11:55 Cloudy with Light Rain 46 7.5 45 7.2 98 98 Calm 30.03 1017 10 16.0934 0.04 1.016
12:15 pm 12:15 Cloudy with Drizzle 46 7.8 45 7.4 97 97 Calm 30.03 1017 10 16.0934 0 0
12:35 pm 12:35 Cloudy with Light Drizzle 46 7.9 45 7.2 95 95 Calm 30 1016 10 16.0934 0 0
12:55 pm 12:55 Cloudy with Light Drizzle 47 8.1 45 7 93 93 Calm 30 1016 10 16.0934 0 0
1:15 pm 13:15 Cloudy 47 8.2 44 6.7 90 90 Calm 30 1016 10 16.0934 0 0
1:35 pm 13:35 Cloudy 47 8.3 44 6.6 89 89 Calm 30 1016 10 16.0934 0 0
1:55 pm 13:55 Cloudy 47 8.6 44 6.8 89 89 Calm 29.94 1014 10 16.0934 0 0
2:15 pm 14:15 Cloudy 48 9 45 7.2 89 89 WSW 3 6 29.94 1014 10 16.0934 0 0
2:35 pm 14:35 Cloudy 49 9.3 45 7 86 86 SW 3 6 29.94 1014 10 16.0934 0 0
2:55 pm 14:55 Cloudy 49 9.2 45 7.2 87 87 W 3 6 29.94 1014 10 16.0934 0 0
3:15 pm 15:15 Cloudy 49 9.5 44 6.7 83 83 WSW 5 7 29.91 1013 10 16.0934 0 0
3:35 pm 15:35 Cloudy 49 9.7 45 7 83 83 WSW 5 7 29.91 1013 10 16.0934 0 0
3:55 pm 15:55 Cloudy 49 9.7 44 6.8 82 82 W 3 6 29.91 1013 10 16.0934 0 0
4:15 pm 16:15 Cloudy 50 9.9 44 6.6 80 80 WSW 3 6 29.91 1013 10 16.0934 0 0
4:35 pm 16:35 Cloudy 49 9.7 44 6.5 81 81 WSW 5 7 29.91 1013 10 16.0934 0 0
4:55 pm 16:55 Cloudy 49 9.7 44 6.9 83 83 SW 6 9 29.91 1013 10 16.0934 0 0
5:15 pm 17:15 Cloudy 50 9.8 45 7.3 85 85 W 3 6 29.91 1013 10 16.0934 0 0
5:35 pm 17:35 Cloudy 49 9.7 44 6.7 82 82 WSW 3 6 29.91 1013 10 16.0934 0 0
5:55 pm 17:55 Cloudy 49 9.6 45 7 84 84 Calm 29.91 1013 10 16.0934 0 0
6:15 pm 18:15 Cloudy 49 9.6 45 7.2 85 85 SSW 3 6 29.91 1013 10 16.0934 0 0
6:35 pm 18:35 Cloudy 49 9.3 46 7.5 89 89 SSW 3 6 29.91 1013 10 16.0934 0 0
6:55 pm 18:55 Partly Cloudy 48 8.7 45 7.1 90 90 SSW 5 7 29.91 1013 10 16.0934 0 0
7:15 pm 19:15 Clear 46 8 45 7 93 93 SSW 3 6 29.94 1014 10 16.0934 0 0
7:35 pm 19:35 Clear 46 7.8 45 7 95 95 SSW 3 6 29.94 1014 10 16.0934 0 0
7:55 pm 19:55 Clear 45 7 43 6.3 95 95 SSW 3 6 29.94 1014 10 16.0934 0 0
8:15 pm 20:15 Clear 44 6.5 43 6.1 97 97 SW 3 6 29.94 1014 10 16.0934 0 0
8:35 pm 20:35 Clear 44 6.5 43 6.1 97 97 SSW 3 6 29.94 1014 10 16.0934 0 0
8:55 pm 20:55 Clear 43 6.3 43 6 98 98 SSW 5 7 29.94 1014 10 16.0934 0 0
9:15 pm 21:15 Clear 43 5.9 42 5.6 98 98 SSW 3 6 29.94 1014 10 16.0934 0 0
9:35 pm 21:35 Clear 41 5.2 41 5 99 99 S 3 6 29.94 1014 10 16.0934 0 0
9:55 pm 21:55 Clear 41 5 41 5 100 100 S 3 6 29.97 1015 10 16.0934 0 0
10:15 pm 22:15 Clear 41 5 41 5 100 100 SSW 5 7 29.97 1015 10 16.0934 0 0
10:35 pm 22:35 Clear 41 5 41 5 100 100 SSW 5 7 30 1016 10 16.0934 0 0
10:55 pm 22:55 Clear 41 5 41 5 100 100 SSW 6 9 29.97 1015 10 16.0934 0 0
11:15 pm 23:15 Clear 41 5 41 5 100 100 SW 5 7 29.97 1015 10 16.0934 0 0
11:35 pm 23:35 Clear 40 4.6 40 4.6 100 100 SSW 5 7 29.97 1015 10 16.0934 0 0
11:55 pm 23:55 Clear 40 4.7 40 4.7 100 100 SW 5 7 29.97 1015 10 16.0934 0 0

Powered by AerisWeather